Flag for Australia Weather past 2 weeks in Darwin, Northern Territory, Australia

Now
72 °F

Clear.


Feels Like: 72 °F
Forecast: 70 / 87 °F
Wind: 1 mph from Northeast

Location: Darwin Airport

Current Time: May 24, 2015 at 9:24:16 PM

Latest Report: May 24, 2015 at 9:00 PM


Visibility: 10 mi

Pressure: 29.98 "Hg

Humidity: 78%

Dew point: 64 °F

Location of DarwinLocation

Historic Weather in Darwin — Graph

°F

Darwin temperature yesterday

Maximum temperature yesterday: 91 °F (at 2:30 PM)
Minimum temperature yesterday: 72 °F (at 7:00 AM)
Average temperature yesterday: 79 °F

Past Weeks' High & Low Weather Summary

 TemperatureHumidityPressure
High93 °F (May 18, 3:00 PM)100% (May 21, 5:00 AM)30.07 "Hg (May 21, 5:00 AM)
Low63 °F (May 16, 5:30 AM)15% (May 15, 2:30 PM)29.83 "Hg (May 19, 4:00 PM)
Average78 °F59%29.95 "Hg
* Reported May 9 8:30 PM — May 24 8:30 PM, Darwin, Weather by CustomWeather, © 2015

Note: Actual official high and low records may vary slightly from our data, if they occured in-between our weather recording intervals... More about our weather records

Advertising

Darwin weather history for previous 24 hours

 ConditionsComfort  
Time TempWeatherWind HumidityBarometerVisibility
8:30 PM
Sun, May 24
72 °FClear.7 mph78%29.95 "Hg10 mi
8:00 PM73 °FClear.6 mph74%29.95 "Hg10 mi
7:30 PM75 °FClear.6 mph74%29.95 "Hg10 mi
7:00 PM77 °FClear.7 mph65%29.92 "Hg10 mi
6:30 PM81 °FSunny.6 mph54%29.92 "Hg10 mi
6:00 PM82 °FSunny.8 mph48%29.92 "Hg10 mi
5:30 PM84 °FSunny.9 mph43%29.89 "Hg10 mi
5:00 PM86 °FSunny.10 mph38%29.89 "Hg10 mi
4:30 PM88 °FSunny.13 mph33%29.89 "Hg10 mi
4:00 PM90 °FSunny.8 mph21%29.89 "Hg10 mi
3:30 PM90 °FSunny.12 mph21%29.89 "Hg10 mi
3:00 PM90 °FSunny.10 mph20%29.89 "Hg10 mi
2:30 PM88 °FSunny.8 mph19%29.89 "Hg10 mi
2:00 PM88 °FSunny.10 mph21%29.89 "Hg10 mi
1:30 PM88 °FSunny.12 mph19%29.92 "Hg10 mi
1:00 PM86 °FSunny.13 mph20%29.95 "Hg10 mi
12:30 PM86 °FSunny.14 mph22%29.95 "Hg10 mi
12:00 PM84 °FSunny.13 mph23%29.95 "Hg10 mi
11:30 AM82 °FSunny.20 mph21%29.98 "Hg10 mi
11:00 AM82 °FSunny.16 mph23%29.98 "Hg10 mi
10:30 AM81 °FSunny.17 mph24%30.01 "Hg10 mi
10:00 AM79 °FSunny.13 mph34%29.98 "Hg10 mi
9:30 AM75 °FSunny.13 mph39%30.01 "Hg10 mi
9:00 AM73 °FSunny.13 mph41%30.01 "Hg10 mi
8:30 AM72 °FSunny.12 mph47%29.98 "Hg10 mi
8:00 AM70 °FSunny.10 mph50%29.98 "Hg10 mi
7:30 AM68 °FSunny.10 mph56%29.98 "Hg10 mi
7:00 AM68 °FClear.8 mph56%29.95 "Hg10 mi
6:30 AM70 °FClear.9 mph50%29.95 "Hg10 mi
6:00 AM72 °FClear.10 mph41%29.95 "Hg10 mi
5:30 AM70 °FClear.8 mph53%29.95 "Hg10 mi
5:00 AM70 °FClear.7 mph53%29.95 "Hg10 mi
4:30 AM70 °FClear.8 mph57%29.95 "Hg10 mi
4:00 AM70 °FClear.8 mph60%29.95 "Hg10 mi
3:30 AM68 °FClear.7 mph78%29.95 "Hg10 mi
3:00 AM70 °FClear.7 mph78%29.95 "Hg10 mi
2:30 AM72 °FClear.7 mph73%29.95 "Hg10 mi
2:00 AM70 °FClear.7 mph88%29.95 "Hg10 mi
1:30 AM72 °FClear.5 mph88%29.95 "Hg10 mi
1:00 AM72 °FClear.5 mph88%29.98 "Hg10 mi
12:30 AM73 °FClear.7 mph89%29.98 "Hg10 mi
12:00 AM75 °FClear.6 mph83%29.98 "Hg10 mi
11:30 PM
Sat, May 23
73 °FClear.5 mph89%29.95 "Hg10 mi
11:00 PM75 °FClear.6 mph83%29.95 "Hg10 mi
10:30 PM75 °FClear.7 mph83%29.95 "Hg10 mi
10:00 PM77 °FClear.6 mph79%29.95 "Hg10 mi
9:30 PM73 °FClear.2 mph83%29.95 "Hg10 mi
9:00 PM75 °FClear.3 mph78%29.95 "Hg10 mi
Weather by CustomWeather, © 2015

See weather overviewHow to use our weather pages